Regional Weather Roundup
Issued by NWS

Home | Current Version | Previous Version | Text Only | Print | Product List | Glossary On
Versions: 1 2 3 4 5 6 7 8 9 10 11 12 13 14 15 16 17 18 19 20 21 22 23 24 25 26 27 28 29 30 31 32 33 34 35 36 37 38 39 40 41 42 43 44 45 46 47 48 49 50
000
ASUS46 KLOX 301713
RWRCA

SOUTHERN CALIFORNIA WEATHER ROUNDUP
NATIONAL WEATHER SERVICE OXNARD CALIFORNIA
1000 AM PDT SAT MAY 30 2015

NOTE: "FAIR" INDICATES FEW OR NO CLOUDS BELOW 12,000 FEET WITH NO
SIGNIFICANT WEATHER AND/OR OBSTRUCTIONS TO VISIBILITY.

  -  STATIONS PRECEEDED BY AN ASTERISK (*) ARE NOT NWS OR FAA
     STATIONS AND ARE NOT SUBJECT TO NWS AND FAA QUALITY CONTROL.

CAZ041-042-087-301800-
LA AND ORANGE COUNTY COASTAL AREAS


CITY           SKY/WX    TMP DP  RH WIND       PRES   REMARKS
L.A. DOWNTOWN  MOSUNNY   68  58  70 VRB3      29.96S HAZE
L.A. AIRPORT   CLOUDY    61  57  88 W5        29.98S FOG
LONG BEACH     CLOUDY    63  58  83 SW6       29.97S HAZE

CITY           SKY/WX    TMP DP  RH WIND       PRES   REMARKS
AVALON           N/A     63 N/A N/A MISG        N/A
FULLERTON      CLOUDY    66  57  72 VRB5      29.96S HAZE
*GETTY CENTER    N/A     61  57  88 S3          N/A
HAWTHORNE      CLOUDY    64  57  78 VRB5      29.97S HAZE
*LOS ALAMITOS  CLOUDY    63  58  83 NW2       29.97S FOG
*REDONDO BEACH   N/A     61  57  88 CALM      29.98S
SANTA ANA      CLOUDY    63  57  81 W3        29.98R HAZE
STA MONICA APT CLOUDY    60  56  86 VRB5      29.97S FOG
TORRANCE       CLOUDY    64  59  82 CALM      29.98S FOG
*UCLA            N/A     63  55  77 S5        29.94S

$$

CAZ547-548-048-301800-
LA COUNTY VALLEYS AND INLAND EMPIRE


CITY           SKY/WX    TMP DP  RH WIND       PRES   REMARKS
BURBANK        MOSUNNY   69  56  62 SE5       29.96R HAZE
VAN NUYS       MOSUNNY   71  57  61 CALM      29.95F HAZE

CITY           SKY/WX    TMP DP  RH WIND       PRES   REMARKS
CORONA AIRPORT SUNNY     70  58  65 W8        29.96S
*CHATSWORTH      N/A     73  58  57 E2        29.93S
CHINO          MOSUNNY   74  59  59 W7        29.96S HAZE
MARCH AFB      SUNNY     81  57  44 VRB5      29.95F
*NORTHRIDGE      N/A     72  55  56 S2          N/A
ONTARIO        PTSUNNY   73  57  57 W6        29.95S
*PASADENA        N/A     72  61  68 CALM        N/A
POMONA         SUNNY     66  57  72 W7        30.00R HAZE
RIVERSIDE      PTSUNNY   72  58  61 VRB6      29.95S HAZE
SAN BERNARDINO PTSUNNY   75  54  46 W6        29.95F HAZE
*WHITEMAN AP   PTSUNNY   68  55  64 CALM      29.99S HAZE
*WOODLAND HILL   N/A     73  55  53 N3          N/A

$$

CAZ054-055-301800-
LA AND SAN BERNARDINO COUNTY MOUNTAINS


CITY           SKY/WX    TMP DP  RH WIND       PRES   REMARKS
*BIG BEAR AIRP SUNNY     68  32  26 W7        30.26R
SANDBERG       SUNNY     79  28  15 S10       30.12R

$$

CAZ028-029-059-060-099-301800-
ANTELOPE VALLEY AND SURROUNDING AREAS


CITY           SKY/WX    TMP DP  RH WIND       PRES   REMARKS
LANCASTER      MOSUNNY   85  33  15 CALM      29.99S
PALMDALE       SUNNY     85  30  13 VRB5      30.00S

CITY           SKY/WX    TMP DP  RH WIND       PRES   REMARKS
29 PALMS       SUNNY     86  41  20 SE5       30.04R
BARSTOW/DAGGET SUNNY     89  30  12 VRB6      29.95S
BISHOP         MOSUNNY   81  29  15 CALM      30.05S
CHINA LAKE     MOSUNNY   87  34  15 E7        29.96S
EDWARDS AFB    CLOUDY    83  29  14 SW6       29.97S
MOJAVE         FAIR      82  32  16 CALM      30.01S
NEEDLES        SUNNY     94  27   9 NE6       29.92S
VICTORVILLE    SUNNY     86  30  13 SE9       30.01S

$$

CAZ039-040-301800-
VENTURA AND SANTA BARBARA COUNTY COAST


CITY           SKY/WX    TMP DP  RH WIND       PRES   REMARKS
CAMARILLO      CLOUDY    64  56  75 N5        29.96F HAZE
OXNARD AIRPORT CLOUDY    63  56  78 VRB5      29.96F HAZE
*POINT MUGU    CLOUDY    66  57  72 VRB3      29.97S HAZE
SBA APT/GOLETA CLOUDY    58  54  86 CALM      29.97R
*SANTA BARBARA   N/A     60  56  86 CALM      30.04S
*VENTURA         N/A     63  59  87 CALM      29.56S

$$

CAZ044-045-301800-
VENTURA COUNTY VALLEYS


CITY           SKY/WX    TMP DP  RH WIND       PRES   REMARKS
*SIMI VALLEY     N/A     69  57  67 CALM      29.91F
*OJAI            N/A     72  57  58 CALM      29.89F
*FILLMORE        N/A     64  60  85 CALM      29.86F

$$

CAZ053-301800-
VENTURA COUNTY MOUNTAINS


CITY           SKY/WX    TMP DP  RH WIND       PRES   REMARKS

$$

CAZ034-035-036-301800-
CENTRAL COAST AND SANTA YNEZ VALLEY


CITY           SKY/WX    TMP DP  RH WIND       PRES   REMARKS
SAN LUIS OBISP MOSUNNY   61  52  72 W5        29.96F
SANTA MARIA    MOSUNNY   61  53  75 CALM      29.97S

CITY           SKY/WX    TMP DP  RH WIND       PRES   REMARKS
*CAL POLY SLO    N/A     57  55  94 S5          N/A
*LOMPOC        CLOUDY    57  48  72 CALM      29.98F
*PISMO BEACH     N/A     55  53  93 SW3       29.97F
*SANTA YNEZ    FAIR      61  50  67 CALM      29.96S

$$

CAZ037-038-051-301800-
SAN LUIS OBISPO COUNTY INTERIOR AND CUYAMA VALLEY


CITY           SKY/WX    TMP DP  RH WIND       PRES   REMARKS
*CUYAMA          N/A     81  42  24 NE2       29.85F
PASO ROBLES    SUNNY     69  49  48 NW7       29.95F

$$

CAZ032-033-061-301800-
SOUTHERN DESERTS


CITY           SKY/WX    TMP DP  RH WIND       PRES   REMARKS
BLYTHE         SUNNY     91  38  15 S10       29.90S
IMPERIAL       SUNNY     81  55  40 CALM      29.88R
PALM SPRINGS   SUNNY     87  47  24 SE7       29.93R
THERMAL        SUNNY     88  49  25 VRB6      29.88S

$$

ELSEWHERE ACROSS THE WESTERN UNITED STATES AND MEXICO


CITY           SKY/WX    TMP DP  RH WIND       PRES   REMARKS
DENVER, CO     MOSUNNY   62  45  53 SE6       30.28F
GRAND CANYON,  SUNNY     74  32  21 VRB3      30.30S
HONOLULU, HI   MOSUNNY   73  64  73 NW6       29.97R
KAHULUI, MAUI  NOT AVBL
LAKE TAHOE, CA PTSUNNY   66  43  43 NE3       30.18S
LAS VEGAS, NV  MOSUNNY   89  23   9 S5        29.95S
MAMMOTH LAKES, FAIR      70  25  18 SE7       30.25S
MEXICO CITY, M CLOUDY    64  50  59 SE2       30.32S
PHOENIX, AZ    MOSUNNY   90  34  13 CALM      29.92S
PORTLAND, OR   PTSUNNY   59  49  69 VRB3      29.98F
RENO, NV       PTSUNNY   75  30  19 CALM      30.07F
SALT LAKE CITY PTSUNNY   73  43  33 S16       30.11S
SAN DIEGO, CA  CLOUDY    64  57  78 W7        30.00R
SAN FRANCISCO, PTSUNNY   55  50  83 W12       29.98S
SAN JOSE, CA   PTSUNNY   61  52  72 NW3       29.97S
SEATTLE, WA    PTSUNNY   56  46  69 SW7       29.98F
TIJUANA, MEX   PTSUNNY   64  55  72 W8        30.00R FOG

$$

STATION/POSITION TIME  TEMP    WIND        PRES    VSBY  WAVE
                       AIR SEA DIR/SP/G                  HT/PER
                 (UTC) (F)     (DEG/KT/KT) (MB)    (MI)  (FT/S)
POINT ARGUELLO B NOT AVBL
WEST SANTA BARBA 1650   55 57  330/  4/  6 1014.4R         4/11
POINT CONCEPTION NOT AVBL
EAST SANTA BARBA 1600   55 60  100/  4/  6 1015.4R
SANTA MONICA BAY 1650   59 63  110/  4/  6 1014.9F         3/14



USA.gov is the U.S. government's official web portal to all federal, state and local government web resources and services.